Member area
Imprimable
Wissant, 09-10/09/2017, BEL - Trail de la Côte d'Opale
List of reports > 31km - Results
Search: Page: [1]
410 Entries
 
Complains are not accepted anymore. Results are final.
PlaceNrLicenceNameAgeNATTeamTimeTkmMoy.ScrCity
1.2342PLAY Jean-Christophe35FRAPHOENIX 432:01:263:56 15.321
2.2537MUSELET Nicolas27FRA2:12:504:18 14.002
3.2983DE DINECHIN Jean Marie39FRA2:14:374:21 13.823
4.2784BRAGARD Martin27BELCORTO2:18:014:28 13.484
5.2353HOLARD Maximilien26FRA2:19:044:30 13.386
6.2308327751THERY Domenico32FRAUS TOURCOING2:19:184:30 13.357
7.2852JACQZ Marc-Antoine32FRA2:19:274:30 13.348
8.2488RIGAUX François38FRA2:19:494:31 13.309
9.2672SEGARD Augustin28FRACS TERNES PARIS OUEST2:23:064:37 13.0011
10.2124SALINGUE Geoffrey39FRAKEEP COOL LILLE2:24:204:40 12.8913
11.2764DUJARDIN Jerome39FRA2:24:344:40 12.8714
12.2429BARROIS Alexandre29FRAASUD JOGGING2:27:094:45 12.6416
13.2403GALLOIS Francois27FRA2:28:044:47 12.5617
14.3014GOUEREC Julien36FRATEAM O2PALE2:28:494:49 12.5019
15.3259RUDANT Jean-Baptiste39FRA2:30:324:52 12.3625
16.2876DEWAILLY Victor27FRACOACH RUNNING2:31:544:54 12.2528
17.2152GRUSON Christophe34FRA2:33:224:57 12.1334
18.3055GOULOIS Pierre Damien31FRA2:33:474:58 12.1037
19.3290VASSAL Nicolas36FRAFOULÉES SAINGHINOISES2:34:335:00 12.0438
20.2433BOITEUX Guillaume32FRA2:34:545:00 12.0140
21.2991HER Jonathan33FRA2:35:265:01 11.9742
22.2897LEROY Christophe37FRA2:35:335:02 11.9643
23.3430COURBOT Vincent38FRA2:36:055:03 11.9245
24.2122COUSIN Antoine33FRA2:36:275:03 11.8947
25.2745SAINT-CAST Victor25FRA2:36:305:03 11.8948
26.2193LAURENT Pierre28FRATRIATHLON CLUB BOULONNAIS2:36:445:04 11.8749
27.3495MUSELET Sebastien28FRA2:38:015:06 11.7751
28.3197BOVEROUX Maxence27FRA2:38:285:07 11.7454
29.3196GHEZA Jérôme31FRAASA MAISONS-ALFORT2:38:285:07 11.7455
30.25511668230PAULET Ludovic36FRAASA MAISONS-ALFORT2:38:445:08 11.7256
31.3004MOUSSEBOIS Eric32BELRT SPRIMONT2:38:555:08 11.7157
32.2830LEMINEUR Quentin29BEL2:39:345:09 11.6661
33.2280LEFEBVRE Vincent35FRA2:40:555:12 11.5663
34.2967LEFEBVRE Olivier37FRA2:41:285:13 11.5265
35.23881259986DAMERY Matthieu33FRARUNCREW59 - LELOUPDESBOIS2:41:385:13 11.5166
36.34531536678GARBONI Calin37FRALILLE METROPOLE ATHLETISM2:42:065:14 11.4868
37.3193ETIENNE Jerome36FRATEAM TRAIL OPALE2:42:135:14 11.4769
38.3210VANEENOO Charles22FRA2:42:455:15 11.4372
39.2079FOSSARD Arnaud35FRAWASQUEHAL TRIATHLON2:42:465:16 11.4373
40.26801947370LHEUREUX Benjamin36FRATOUQUET TRAIL NATURE2:43:115:16 11.4074
41.3274DEGARDIN David35FRA2:43:255:17 11.3876
42.2217PECCEU Jean-Baptiste33FRA2:43:295:17 11.3877
43.2267DECOOPMAN Remy34FRATEAM TRAIL OPALE2:43:515:18 11.3579
44.3484BAILLEUX Samuel28FRAOTC452:43:595:18 11.3481
45.2123LARDAN Thomas35FRA2:43:595:18 11.3482
46.2754DUQUENOŸ Timothée25FRA2:44:005:18 11.3484
47.3359GUENOUX François37FRA2:44:145:18 11.3387
48.3240PASCAUD Grégory32FRA2:44:495:19 11.2992
49.28011268831BRAY Alexandre36FRAASPTT COMPIEGNE2:44:545:20 11.2894
50.2747LANOY Adrien35FRA2:45:165:20 11.2596
51.2984THIEBAUT Frantz38FRA2:45:195:20 11.2597
52.2569LE TRIONNAIRE Nicolas29FRA2:45:575:22 11.21100
53.3065ZANGARI Nicolas29FRAFAW2:46:095:22 11.20101
54.2188GENSSE Jeremy34FRA2:46:105:22 11.19102
55.3328DEROOZ Grégory35FRATRI'N TRAIL 4 FUN2:46:115:22 11.19103
56.3418MEUNIER Wilfried36FRA2:46:375:23 11.16106
57.2662CORDIER Samuel38FRA2:47:055:24 11.13108
58.3250VERNALDE Julien36FRATEAM GRAVELINES TRAIL2:47:175:24 11.12109
59.2997COCQUET Eric39FRA2:47:525:25 11.08110
60.2547HUCHETTE Damien26FRA2:48:515:27 11.02113
61.3015GILLERON Guillaume32FRA2:49:335:29 10.97117
62.3406QUITTELIER Jason27BEL2:49:385:29 10.97118
63.2461MGHARI Ahmad36FRAATHLÉTISME FLEURUS2:50:035:30 10.94124
64.2711COUTURIER Edouard37FRA2:50:075:30 10.93126
65.3287VELGHE Julien38BELACTE/O2MAX2:50:215:30 10.92130
66.2511NICOLINI Matthieu29FRA2:50:365:31 10.90131
67.3286RENARD Guillaume23BELBAUDOUR2:50:405:31 10.90132
68.2274LEYDIER Antoine38FRA2:50:425:31 10.90133
69.2760DE MAILLARD Emmanuel38FRA2:50:505:31 10.89135
70.2088SERMOT Nicolas36FRAKALENJI2:51:505:33 10.83143
71.2918BALESTAN Maxime24FRA2:52:135:34 10.80147
72.2327LEMAIRE Amaury30FRA2:53:495:37 10.70156
73.2378VANDYCKE David36FRA2:53:595:37 10.69157
74.2721NIQUE Julien37FRA2:54:115:38 10.68159
75.3203CANDELIER Boris39FRA2:54:315:38 10.66163
76.2640CANDELIER Kévin31FRA2:54:315:38 10.66164
77.2458DUCLERCQ Olivier33FRA2:54:385:38 10.65165
78.2457POUPART Nicolas32FRA2:54:485:39 10.64166
79.2930BIGEAY Geoffrey27FRA2:54:575:39 10.63168
80.2115GHIGNY Thomas35BELMYRUN2:55:005:39 10.63169
81.2402HUTIN Ludovic36FRA2:55:125:40 10.62171
82.2296GUINAMARD Antoine25FRA2:55:135:40 10.62172
83.2650FRANCOIS Lois25FRA2:55:325:40 10.60174
84.3068POISSONNIER Vincent33FRA2:55:465:41 10.58177
85.3066SZYMANSKI Alban34FRA2:55:465:41 10.58178
86.23681767316FACHE Lionel27FRA2:55:485:41 10.58179
87.26421549432ROGER Sylvain38FRAUA SOCIETE GENERALE2:55:515:41 10.58182
88.30161458250DUHAMEL Gregoire38FRABOULOGNE-SUR-MER AC2:56:125:42 10.56185
89.2464LAMIRAND Etienne33DECATHLON ST-MARTIN2:56:195:42 10.55186
90.2455DHALLEINE Jonathan38FRAAMI RUNNER DU GRAND NORD2:56:295:42 10.54187
91.2512GUILBERT Antoine35FRA2:56:575:43 10.51191
92.3008BOURGEOT Charles-Olivier39FRA2:57:235:44 10.49197
93.2935BACRO Antoine23FRACOACH RUNNING2:57:345:44 10.48199
94.2737VANTORRE Sébastien36BELSPORT EVASION2:57:545:45 10.46206
95.3067ARGENTIN Benoit35FRA2:57:565:45 10.45207
96.3064VLAEMYNCK Rémi34FRA2:57:565:45 10.45208
97.2656MAQUINGHEN Franck33FRABOULOGNE ATHLÉTIC CLUB2:58:315:46 10.42213
98.2444BRABANT Julien22FRA2:58:425:46 10.41215
99.2443BRABANT Olivier26FRA2:58:535:47 10.40216
100.2016CHRISTIAN Dubois36FRAGROUPE EMPLIO2:58:555:47 10.40217
101.2502LOUCHART Julien31FRAAS LFB2:59:345:48 10.36222
102.3475LEPENANT Julien36FRA2:59:415:48 10.35223
103.2762MARCHAND Nicolas35FRA2:59:435:48 10.35224
104.2231DE SMAELE Nicolas34BELSURICATES RUNNERS3:00:065:49 10.33227
105.2263COLLETTE Jean21FRA3:00:095:49 10.33228
106.3310FRANQUENOUL Sylvain34FRA3:00:095:49 10.32229
107.3454HENNEBERT Bertrand37BELARAMIS RUNNING MONS3:00:135:49 10.32230
108.2200FUZELLIER Kevin32FRA3:00:385:50 10.30237
109.2334CAPELLE Pierre36FRATEAM ROCKET3:00:485:50 10.29238
110.2428VASSEUR Ludovic32FRA3:00:535:51 10.28239
111.2430COLIN Kévin32FRAASUD3:00:535:51 10.28240
112.2246DELANNOY Francois33FRA3:00:545:51 10.28242
113.2397SROKOSZEWSKI Michael35FRA3:01:035:51 10.27244
114.2961T300300PREZ Bertrand39FRA3:01:055:51 10.27245
115.2960VANGAEVEREN Thomas38FRA3:01:065:51 10.27246
116.3459COOSEMANS Robin38BEL3:01:185:51 10.26247
117.2523OLIVIER Kevin34FRA3:01:195:51 10.26249
118.3017MINET Francois37FRATEMPLEUVE3:01:275:52 10.25252
119.2087DECHERF Alexandre32FRAKEEPCOOL3:01:365:52 10.24253
120.2689DELECOUR Laurent38FRACPSS3:02:125:53 10.21258
121.2889VANDERMARLIÈRE Guillaume33FRA3:02:125:53 10.21259
122.2836LECLERCQ Gaëtan35BELTRAILERS DES FAGNES3:02:195:53 10.20260
123.3273PERDIGEON Maxence29FRAAAAVA3:02:365:54 10.19265
124.2654DOBBELS Morgan26FRA3:02:375:54 10.19266
125.2023LAGACHE Jonathan33FRA3:03:005:55 10.16270
126.2583PATRICE Ready36BELSPORTICS3:03:495:56 10.12276
127.2377VANPEENE Xavier39FRA3:04:075:57 10.10277
128.2742DEVILDER Quentin35FRA3:04:085:57 10.10278
129.2183DE SAINT MARTIN Alain36BELETC3:04:255:57 10.09280
130.3002DELHAYE Basile38FRARUNNERS EN NORD3:04:335:58 10.08285
131.28711703327COCQ Charles-Edmond34FRAGRAVITY RUNNING EXPERIENC3:04:365:58 10.08286
132.2954VANHAELEN Pierre29BELJIA MJ SPORT3:04:525:58 10.06289
133.2880PLANCQ David39FRALES FOULÉES HOUPLINOISES3:05:065:59 10.05291
134.2452GONTIER Julien35FRA3:05:366:00 10.02296
135.2474WILLOT Cyril29FRA3:05:386:00 10.02297
136.2020DEVILDER Maxime36FRAGROUPE EMPLIO3:05:436:00 10.02298
137.2205HUVENNE Kevin37BELXTRATIMERUNNING3:05:506:00 10.01301
138.2465PHILIPPOT Elie36FRA3:06:126:01 9.99304
139.2472VANDEN BERGHE Erwan37FRA3:06:146:01 9.99305
140.3332CANONNE Olivier39FRA3:06:146:01 9.99306
141.2229WATTIEZ François36BEL3:06:206:01 9.98307
142.2359GOETHALS Antoine32FRA3:06:356:02 9.97309
143.3205BITOT Frederic39FRA3:06:396:02 9.97310
144.2212RASSON Olivier36FRA3:06:416:02 9.96314
145.2659WAILLY Guillaume36FRAAUBIGNY RUNNING3:06:596:02 9.95316
146.3253TIEGHEM Aurélien35FRA3:07:056:03 9.94317
147.2483ROHART Sylvain36FRA3:07:276:03 9.92321
148.2657MOÏSE Denis35BELMESNIL3:07:286:03 9.92322
149.2293LEFEBVRE Ludovic39FRACREATEAM3:07:396:04 9.91324
150.2631MERLEN Alexandre25FRATL593:07:486:04 9.90329
151.2865PLATTEEUW Pierre38FRAPIPAIX3:07:586:04 9.90333
152.2693ABOUKAIS Wissam36FRA3:08:006:04 9.89335
153.2809MOREAU Sebastien34FRACOT TRITH ATHLETISME3:08:006:04 9.89336
154.2279MAQUIGNON Antoine30FRA3:08:056:05 9.89338
155.3358GUENOUX Nicolas38FRA3:08:086:05 9.89339
156.2434REPLUMAZ Aurélien32FRA3:08:226:05 9.87341
157.3426LEFEVRE Kevin36FRAAC OUTREAU3:08:266:05 9.87344
158.2531GALLET Aurelien38FRA3:08:316:05 9.87346
159.3268CAMPAGNE Guillaume36FRATEAM ROCKET3:08:446:06 9.86349
160.26851826078MEVAERE Remi30FRAS/L ASPTT LILLE METROPOLE3:08:506:06 9.85352
161.3396JOURET Julien37BELB BÊTES DE COURSE3:08:576:06 9.84353
162.3272SUTEAU Jérémie30FRAUNILEVER FRANCE COURSES3:08:586:06 9.84354
163.2008BRACQBIEN Maxime32DECATHLON ST MARTIN3:09:006:06 9.84355
164.2611MARTINOT Sebastien38FRA3:09:096:07 9.83356
165.2904DELVIGNE Julien32BELTEMPLEUVE3:09:186:07 9.83357
166.2478BECQUART Simon31FRA3:09:246:07 9.82360
167.3221BECQUART Antoine33FRA3:09:266:07 9.82361
168.3063SELLIEZ Matthieu39FRATEAM GRAVELINES TRAIL3:09:346:07 9.81363
169.2515CHARRAS Guillaume34FRA3:09:366:07 9.81365
170.3376DUFOUR Bruno38FRA3:09:406:08 9.81366
171.2487DURIEZ Grégoire28FRA3:09:496:08 9.80368
172.3220POLEUR Francois33BELJAMES CLUB3:09:586:08 9.79370
173.2839OLLIVIER Sébastien37FRA3:10:006:08 9.79371
174.2507RICHARD Olivier31FRA3:10:026:08 9.79372
175.3275HUYGHE Timothée35FRAPLANETE RUNNING AND WALKI3:10:066:08 9.79373
176.3472PAQUENTIN Julien38FRA3:10:156:09 9.78375
177.2849GUERIN Pierre36FRA3:10:226:09 9.77376
178.2738DESJONQUÈRES Hugues35FRA3:10:416:10 9.76377
179.2845TIMMERMAN Sébastien33BELJCL3:10:576:10 9.74382
180.2467AVOT Jean-Baptiste32FRA3:11:186:11 9.72390
181.2449LE MAIGNENT Antoine38FRACO TRITH ATHLETISME3:11:226:11 9.72391
182.2248MICHAUD Julien35FRA3:11:396:11 9.71399
183.2309PEQUIGNOT Thomas32FRA3:11:476:12 9.70400
184.2175BLAS Antoine28FRA3:11:516:12 9.70403
185.2712CLARYS Ludovic35FRACOURIR A GRAVELINES3:12:046:12 9.68406
186.2473SABBADINI Guillaume31FRA3:12:296:13 9.66411
187.3437DUBAIL Florentin32FRA3:12:526:14 9.64416
188.3393ALLARD Matthieu36FRAOGSA3:13:206:15 9.62420
189.32021581649VERITE Cedric32FRASPORT PLUS3:13:276:15 9.62421
190.2165GLASSON Anthony37FRA3:13:296:15 9.61422
191.2383AUGUET Julien38FRA3:13:356:15 9.61423
192.2417MERY DE MONTIGNY Nicolas36FRA3:13:356:15 9.61424
193.3447THERY Julien28FRA3:13:376:15 9.61425
194.3493KINZIGER Arnaud39FRAFOREST RUNNING3:13:406:15 9.60427
195.2986DELPIERRE Frederic38FRATEAM TRAIL OPALE3:13:416:15 9.60428
196.3281CREPEL Nicolas28FRA3:13:536:16 9.59431
197.3386HENAUT Julien39FRA3:13:546:16 9.59432
198.3282CLERBOUT Christophe36FRA3:13:556:16 9.59434
199.2630DEVOS Clément32FRA3:13:566:16 9.59435
199.2697LAGOUCHE Jeremy30FRA3:13:566:16 9.59435
201.3053DEWEVRE Simon29FRA3:14:046:16 9.58439
202.2644DELEGLISE Marc39FRA3:14:416:17 9.55447
203.2758ACHTE Adrien32FRA3:14:446:17 9.55448
204.2602STOCLET Fabian27BEL3:15:276:19 9.52453
205.3295GRENIER Aurelien32BEL3:15:456:19 9.50455
206.2900DE WITTE Sébastien34FRA3:15:466:19 9.50456
207.2616LEPRETRE Pierre33FRA3:15:516:20 9.50458
208.3060MEES Simon38BEL3:15:536:20 9.50459
209.2765SCHOTT Gregory38FRA3:16:166:20 9.48461
210.21971743802HIROUX Sylvain39FRA3:16:216:21 9.47463
211.2227VANCOILLIE Cédric39FRAQUESNOY POUR TOUS LES TEM3:16:216:21 9.47464
212.2247BALLIGAND Florian27FRA3:16:286:21 9.47471
213.33921579264MALABOEUF Philippe36FRA3:16:316:21 9.47473
214.2349BLONDIAUX Maxime35BELETCHIEVRES3:16:356:21 9.46475
215.2939VANHILLE Nicolas37FRA3:16:426:21 9.46477
216.3025EL BAAMRANI Karim34BELSURICATES3:16:506:21 9.45478
217.2108HOUDART Matthieu37BELPIPAIX3:17:176:22 9.43484
218.2060EECKEMAN Thomas33FRAUSL JOGGING3:17:226:22 9.42487
219.3247LIVRAN Jerome34FRA3:17:546:24 9.40495
220.2772VANDESTEENE Mathieu38FRAMONTAZAP3:18:076:24 9.39496
221.3364QUINTYN Mathieu36BELJ.E.T.3:18:256:25 9.37497
222.3022MOURAND Arnaud33FRADECATHLON3:18:446:25 9.36503
223.3394BRAQUENIER Benoit39BELB BÊTES DE COURSE3:18:456:25 9.36505
224.2269T301783BAILLET Xavier37FRA3:18:466:25 9.36506
225.2382RICHARD Remy21FRA3:18:516:25 9.35509
226.3009BIDAUD Fabien38FRA3:19:036:26 9.34512
227.2238DEQUIDT Pierre Louis28FRA3:19:066:26 9.34513
228.2730DEMILLY Dany37FRATTO3:19:196:26 9.33515
229.2962CARRU Fabien33FRA3:19:206:26 9.33516
230.2564CLERX Sébastien29FRAPIPAIX3:19:246:26 9.33518
231.2829VARLET Arnaud28BEL3:19:416:27 9.31520
232.2638CHARLES Rémy35FRA3:19:526:27 9.31521
233.2275LEMAN Cédric29FRA3:20:006:28 9.30523
234.3031CNOSSEN Johan30FRA3:20:156:28 9.29525
235.3331DESMETTE Loic20BEL3:21:066:30 9.25537
236.3233DEHEUNYNCK Guillaume35FRA3:21:286:30 9.23541
237.2480OLIVIER Maxence29FRA3:21:286:30 9.23542
238.2184DEHOUSSE Vincent36FRA3:21:306:30 9.23543
239.3306BIART Quentin37FRA3:21:326:31 9.23544
240.3313HIAULT Nicolas33FRAACC3:21:346:31 9.23548
241.3390MASCARTE Jean Philippe35FRA3:21:366:31 9.23550
242.2660ROYER Ludovic36FRA3:21:466:31 9.22551
243.2922BRASSELET Bastien36FRA3:22:016:31 9.21552
244.2844LEROY Vincent25BEL3:22:076:32 9.20553
245.3242DAGNEAUX Julien36FRA3:22:136:32 9.20556
246.2992BOURGAU Frederic39FRA3:22:196:32 9.19559
247.2663BURNIAT Olivier34FRATOUJOURS ALLURE3:22:206:32 9.19561
248.32761749517GANTOIS Nicolas35FRAPLANETE RUNNING AND WALKI3:22:236:32 9.19563
249.2862CHARLES Antoine36FRA3:22:316:32 9.18566
250.3399BRASSELET Cyrille27FRA3:22:436:33 9.18569
251.2819PONCELET David38BEL3:23:046:34 9.16576
252.2002AVOT Martin27DECATHLON ST MARTIN3:23:446:35 9.13583
253.2001AVOT Victor25DECATHLON ST MARTIN3:23:446:35 9.13584
254.3303DORIGNY Fabian35FRA3:23:466:35 9.13585
255.2000FILMOTTE Franck353:23:516:35 9.12588
256.2262LOUF Bernard32FRA3:23:536:35 9.12589
257.3296FOUCART Pierre34BEL3:24:076:36 9.11595
258.2055GONNET Amaury34FRA3:24:076:36 9.11596
259.2750JEAN PHILIPPE Etchepare31FRASO CALAIS ATHLETISME3:24:326:36 9.09600
260.3043LIBERT Stephane36FRAASUD3:24:456:37 9.08601
261.2787VANHUYSE Romain33FRA3:25:286:38 9.05604
262.2723VANZEVEREN Simon33FRA3:25:286:38 9.05605
263.2868FOVET Olivier37FRAFOULEES HOUPLINOISES3:25:546:39 9.03609
264.29961587184LAPORTE Franck30FRAPATRIOTE CROSS DE GUINES3:25:566:39 9.03610
265.2818FACQ Matthieu38FRA3:26:236:40 9.01618
266.2463DURDUX Remi29DECATHLON ST-MARTIN3:26:246:40 9.01619
267.3499TRENTESAUX Thomas38FRA3:26:536:41 8.99622
268.2902TURLUTTE Eric39FRA3:26:536:41 8.99623
269.2373GHYSEL Vincent28FRA3:27:066:41 8.98626
270.2375BONNEAUD Mathieu37FRA3:27:076:41 8.98628
271.3327WALLARD Matthieu32FRA3:27:086:41 8.98629
272.2628GRAS Louis37FRA3:27:186:42 8.97630
273.2626VANDOOREN Paul37FRA3:27:306:42 8.96633
274.29931904646LUBREZ Nicolas35FRAS/L US TOURCOING3:27:506:43 8.95638
275.3234CHARLET Julien34FRA3:27:526:43 8.95641
276.3367CALVIN Jeremy34FRA3:27:546:43 8.95643
277.2989PINTEAUX Sébastien35FRA3:28:006:43 8.94644
278.2416LEBEURRE Nicolas33FRA3:28:036:43 8.94646
279.3023DELMOTTE Rémy36FRA3:28:086:43 8.94649
280.3297MALVOISIN Florian37BEL3:28:216:44 8.93655
281.3194BORNAIS Thomas36FRA3:28:256:44 8.92657
282.2566VERDONCK Bruno31BELSPORTICS3:28:316:44 8.92658
283.2415NOEL Clement31FRA3:28:336:44 8.92660
284.2548TALPAERT Anthony39FRA3:28:496:45 8.91664
285.2843SORRIAUX Bryan25BEL3:28:596:45 8.90668
286.2361LACAILLE Yoann28FRA3:29:326:46 8.88675
287.2340JOSIEN Julien36FRA3:29:356:46 8.88678
288.2535BRASSEUR Sébastien32FRA3:29:386:46 8.87679
289.2277DAUDREZ Mathieu23FRA3:29:426:46 8.87680
290.2326LEMAIRE Geoffrey28FRA3:30:096:47 8.85685
291.2053BRABANT Julien37FRA3:30:116:47 8.85687
292.2896DELECLUSE Maxime25BEL3:30:126:47 8.85688
293.3368FAUQUEMBERGUE Kévin29FRA3:30:226:48 8.84690
294.3489VASSEUR Sylvain33FRA3:30:586:49 8.82692
295.2749LAGACHE Damien39FRATEAM GRAVELINES TRAIL3:31:496:50 8.78698
296.3052KNOCKAERT Anthony35FRATEAM TRAIL GRAVELINE3:31:496:50 8.78699
297.2560PANKANIN Grégoire35FRABREF JE FAIS DU TRAIL3:32:106:51 8.77704
298.2559GRARDEL Victor34FRABREF JE FAIS DU TRAIL3:32:106:51 8.77705
299.2396CAENEN Bastien33FRA3:32:196:51 8.76707
300.3377FOUQUEROLLE Sébastien37FRA3:32:326:52 8.75709
301.2376ROQUETTE Adrien34FRA3:32:366:52 8.75711
302.3381BOURSIEZ Mathieu30FRA3:33:146:53 8.72716
303.2528PILATE Alexis37BELRMT3:33:226:53 8.72718
304.3423DEFFONTAINE Alexandre38FRA3:33:236:53 8.72721
305.2419GRIERE Baptiste36FRARUNNIGHEM3:33:236:53 8.72722
306.2286QUELQUEJAY Florent36FRA3:33:326:54 8.71725
307.3334JASNIAK Sebastien38FRA3:33:426:54 8.70729
308.2144DECLERCQ Thomas38FRA3:34:016:55 8.69741
309.3056BOUDIN Thomas28FRA3:34:106:55 8.68744
310.2931GUILBERT Kevin27FRATTO3:34:396:56 8.67748
311.2431RAULT Sébastien39FRATEAM TIUNFOU3:34:396:56 8.67749
312.3309DEVIN Julien28FRA3:34:406:56 8.67750
313.2414FROISSART Teddy38FRA3:34:466:56 8.66756
314.2486THORLET Maxime33FRA3:35:376:58 8.63767
315.2456BLONDEL Julien31FRA3:35:376:58 8.63768
316.2814RUISSEAU Maxime32BELCOMITARDS3:36:266:59 8.59786
317.2807DANGUIEN David35FRA3:36:497:00 8.58789
318.2479FLORENT Aurelien27FRA3:37:027:01 8.57792
319.2510ROSE Louis39FRA3:37:077:01 8.57793
320.3458DRUART Olivier37BEL3:37:087:01 8.57794
321.2011DUFOUR Antoine23DECATHLON ST-MARTIN3:37:167:01 8.56796
322.2699TÉTIN Pierre-Antoine31FRA3:38:037:03 8.53802
323.2410VANDEN TORREN Olivier36FRA3:38:147:03 8.52803
324.2439CARLU Alexandre28FRA3:38:167:03 8.52804
325.3326DEMUYNCK Clement24FRA3:38:417:04 8.51812
326.2698ROSE Alexandre32FRA3:38:427:04 8.51813
327.2853CALMELS Pierre-Henri27FRA3:39:537:06 8.46822
328.3256HERBEZ Nicolas36FRARUNTODRINK3:40:327:07 8.43833
329.2746HAYEN Thomas33FRA3:40:387:08 8.43835
330.3417DEPLANCK Charles-Eric32FRA3:40:397:08 8.43836
331.3427CHARASSON Laurent37FRA3:41:017:08 8.42839
332.2700BOURGUIGNON Frédéric36FRA3:41:277:09 8.40841
333.2336DELVALLEZ Sébastien34FRATEAM TRAIL AUDOMAROIS3:41:297:09 8.40843
334.2046DELLOYE Thibaud39FRALMC3:42:207:11 8.37850
335.3010VANBERTEN Pascal39FRA3:42:257:11 8.36853
336.2777DERANGERE Nicolas26FRA3:42:417:11 8.35856
337.2301BRABANT Corentin36FRA3:42:537:12 8.35860
338.3241LEROY Sylvain35FRA3:43:077:12 8.34863
339.2850DAILLY Nicolas31FRA3:43:087:12 8.34864
340.29071876978BOURGUIGNON Vianney36FRAOSM LOMME3:43:127:12 8.33867
341.2609DELEPORTE Pierre34FRATEAM ROCKET3:44:237:15 8.29880
342.2335SENELAER Benoît30FRA3:44:447:15 8.28883
343.3198LAFON Sylvain39FRA3:44:457:15 8.28884
344.3353CROQUELOIS Alexandre23FRA3:45:177:17 8.26890
345.2970DEBEIR Guillaume23FRA3:45:187:17 8.26891
346.3435VERHOYE Filip37BELACP3:45:207:17 8.25893
347.3260HOULIEZ Mathieu33FRAVALEO3:45:517:18 8.24901
348.2427DUTHOY Quentin31FRA3:46:237:19 8.22909
349.3322HENOT Hugo27FRA3:46:317:19 8.21910
350.3209JUBERT Mickael39FRA3:46:427:19 8.21913
351.2346PERULAT Patrice37FRAX TERRILS3:46:477:19 8.20915
352.2345LENGRAND Mickael36FRAX TERRILS3:46:487:19 8.20916
353.2782MAGNIER David32FRA3:46:587:20 8.20922
354.2639DELBECQUE Julien32FRA3:47:167:20 8.18928
355.3255PAQUET Eric31BEL3:47:177:20 8.18929
356.2821MACREZ Jérôme39FRATEAM RAIDLIGHT3:47:257:21 8.18932
357.3312NEMRI David39FRAACC3:47:337:21 8.17933
358.3204LEPLEUX Christophe25FRA3:47:537:22 8.16935
359.2149BETHENCOURT Damien34FRA3:49:227:24 8.11956
360.3292LECLERCQ Christophe33FRA3:49:267:25 8.11957
361.2411MERCIER William38FRA3:49:307:25 8.11958
362.3463TARNUS Mathieu37FRA3:49:437:25 8.10960
363.2089DE SAINT SEINE Antoine38FRA3:50:117:26 8.08963
364.2988DELVOIE Mikael37FRA3:50:147:26 8.08964
365.2249BARBIER Benjamin34FRA3:50:307:27 8.07969
366.2098WALTER Pierre35FRACE ALSTOM3:50:317:27 8.07971
367.3362CARLIER Florian20BEL3:51:167:28 8.04980
368.2395AUVRAY Martin32FRA3:51:567:29 8.02984
369.3344PETIT Remi33FRAPHALEMPIN AC3:53:247:32 7.97991
370.2265MOREL Fabian35FRA3:53:477:33 7.96994
371.3005PETIT Arnaud32FRAPHALEMPIN AC3:56:057:37 7.881013
372.2623TOULEMONDE Emmanuel-Lin26FRARANDOM FOREST3:56:097:38 7.881014
373.2866PÈRE Timothée24FRA3:56:447:39 7.861021
374.2731HERCOT Nicolas37BEL3:57:347:40 7.831031
375.3486HANNON Thomas34FRA3:59:417:44 7.761051
376.3345KINDT Louis28FRA3:59:507:45 7.761052
377.2586LE ROY Julien29FRA4:01:307:48 7.701069
378.2617MASSEMIN Teddy34FRA4:01:317:48 7.701070
379.2875STEPHANOS Konstantinidis39BELECLATÉS DE PÉRUWELZ4:01:337:48 7.701072
380.3355VERMEULEN Damien30FRAMADRES4:01:347:48 7.701073
381.2352COTTIGNY Maxime34FRATEAM TRAIL OPALE4:01:417:48 7.701075
382.3007CAPELLE Jack38FRA4:02:107:49 7.681081
383.2565PATOUT Simon29BELTEMPLEUVE4:02:507:50 7.661087
384.2714KEIJSERS Geoffrey35BELSURICATES4:04:527:54 7.601096
385.3346VANCRAEYNEST Emilien26FRA4:04:567:55 7.591098
386.3227BELLENGER Wandrille35FRA4:05:017:55 7.591099
387.3000POURCELOT Sebastien37FRA4:06:347:58 7.541105
388.2226LORTHOIS Quentin27FRA4:07:358:00 7.511110
389.671ROSZAK Christopher34FRA4:07:488:00 7.511111
390.2048VINCON Mattieu33FRALMC4:10:158:05 7.431116
391.3371BOYAVAL Benoit29FRA4:11:518:08 7.391120
392.2294BOYAVAL Arnaud37FRA4:11:518:08 7.391121
393.3199BURGGRAEVE Anthony37FRA4:12:388:09 7.361124
394.3366MARCOURT Benjamin34FRA4:15:188:15 7.291131
395.2525DROMBRY Julien31FRA4:15:568:16 7.271132
396.2399MESSEYNE Gregory39FRA4:16:308:17 7.251135
397.2278VASSEUR Gauthier23FRA4:17:318:19 7.221140
398.3186VANDEPUTTE François36FRA4:18:528:22 7.191146
399.3342NISON Philippe36FRAPHALEMPIN AC4:24:088:32 7.041156
400.3019COUROUBLE Olivier39FRA4:27:028:37 6.971159
401.2804VAN-DAËLEN Jérémy32FRALES COUREURS DU LOUP BLAN4:35:258:54 6.751167
402.2620DEHAUDT Franck33FRA4:37:148:57 6.711169
403.2594MANS Quentin31FRA4:39:599:02 6.641173
404.2438COLLIN Denis38BELLES 2 À L'HEURE4:45:349:13 6.511176
405.1611VINCENT Nicolas30FRANA4:45:459:14 6.511178
406.2358MAJA Quentin26BELJ.E.T4:46:389:15 6.491179
407.2090CHAMILLARD Bertrand36FRA4:55:369:33 6.291185
408.3285PITRE Kévin24FRALES FOULEES LOONOISES4:59:119:40 6.221186
DSQ3192FRICK Jean-François36FRARUNCREW592:46:44
DNF2688GOSSELIN Rudy37FRAOPALE COYOTTE
DNF: did not finish; DSQ: disqualified; Speed in km/h
Page: [1]